Regional Weather Roundup
Issued by NWS Upton, NY

Current Version | Previous Version | Text Only | Print | Product List | Glossary On
Versions: 1 2 3 4 5 6 7 8 9 10 11 12 13 14 15 16 17 18 19 20 21 22 23 24 25 26 27 28 29 30 31 32 33 34 35 36 37 38 39 40 41 42 43 44 45 46 47 48 49 50
000 ASUS41 KOKX 251505 RWROKX REGIONAL WEATHER ROUNDUP NATIONAL WEATHER SERVICE NEW YORK NY 1000 AM EST SUN JAN 25 2015 NOTE: "FAIR" INDICATES FEW OR NO CLOUDS BELOW 12,000 FEET WITH NO SIGNIFICANT WEATHER AND/OR OBSTRUCTIONS TO VISIBILITY. NYZ071-072-176-178-NJZ106-104-251600- NEW YORK CITY METRO AREA CITY SKY/WX TMP DP RH WIND PRES REMARKS CENTRAL PARK SUNNY 39 27 62 W5 29.75R LAGUARDIA APRT MOSUNNY 39 28 64 SW8G18 29.74R WCI 33 KENNEDY INTL PTSUNNY 39 29 67 W13 29.76R WCI 31 NEWARK/LIBERTY PTSUNNY 38 29 70 W10 29.74R WCI 31 BRNX BOT. GARD N/A N/A N/A N/A W20 29.73F TETERBORO MOSUNNY 39 27 62 SW12 29.73R WCI 32 $$ NYZ177-179-078>081-251600- LONG ISLAND NEW YORK CITY SKY/WX TMP DP RH WIND PRES REMARKS FARMINGDALE MOSUNNY 39 28 64 W15G23 29.73R WCI 31 ISLIP MOSUNNY 38 28 67 W18G26 29.70R WCI 28 SHIRLEY SUNNY 39 28 64 W13G28 29.72R WCI 31 WESTHAMPTON MOSUNNY 39 28 64 W21G32 29.71R WCI 29 MONTAUK POINT N/A 39 29 67 W10G23 29.68R WCI 32 $$ NYZ052-065-067-251600- HUDSON VALLEY CITY SKY/WX TMP DP RH WIND PRES REMARKS WHITE PLAINS PTSUNNY 38 22 52 W12G23 29.69R WCI 30 NEWBURGH MOSUNNY 36 21 55 NW17G29 29.70R WCI 25 MONTGOMERY MOSUNNY 36 17 46 NW15G21 29.70R WCI 27 POUGHKEEPSIE SUNNY 38 18 44 W13G26 29.70R WCI 30 ALBANY MOSUNNY 28 12 51 W26 29.75R WCI 13 $$ NJZ001-105-106-008-010-013-015-019>022-104-251600- NEW JERSEY CITY SKY/WX TMP DP RH WIND PRES REMARKS NEWARK/LIBERTY PTSUNNY 38 29 70 W10 29.74R WCI 31 TETERBORO MOSUNNY 39 27 62 SW12 29.73R WCI 32 CALDWELL MOSUNNY 38 27 64 W9 29.73R WCI 31 MORRISTOWN MOSUNNY 39 28 65 W7 29.73R WCI 34 SOMERVILLE MOSUNNY 42 28 57 MISG 29.73R SUSSEX MOSUNNY 37 16 42 VRB7G16 29.72R WCI 32 ANDOVER N/A 38 19 46 NW9G18 29.72R WCI 31 TRENTON MOSUNNY 41 28 60 W14G20 29.76R MILLVILLE MOSUNNY 41 31 67 W12 29.81S ATLANTIC CITY MOSUNNY 41 30 65 W10 29.79F WRIGHTSTOWN MOSUNNY 40 29 66 W12G18 29.76R WCI 33 TOMS RIVER SUNNY 41 30 65 W14 29.78R BELMAR MOSUNNY 39 27 60 W13G20 29.76S WCI 32 $$ PAZ047>061-062-071-251600- EASTERN PENNSYLVANIA CITY SKY/WX TMP DP RH WIND PRES REMARKS PHILADELPHIA PTSUNNY 40 30 67 W15 29.80S WCI 32 ALLENTOWN CLOUDY 40 28 62 W9 29.75R WCI 34 SCRANTON SUNNY 33 15 47 NW16G23 29.74R WCI 23 $$ CTZ002-004>006-009-010-012-RIZ004-006-007-MAZ004-011-015-251600- SOUTHERN NEW ENGLAND IN CT CITY SKY/WX TMP DP RH WIND PRES REMARKS BRADLEY INTL PTSUNNY 37 23 56 NW12 29.65R WCI 29 HARTFORD SUNNY 37 26 64 SW13 29.66R WCI 29 DANBURY MOSUNNY 37 17 44 W20G29 29.68R WCI 27 WTRBRY/OXFORD PTSUNNY 36 21 55 NW9G20 29.66R WCI 29 BRIDGEPORT SUNNY 38 31 76 SW16 29.68R WCI 29 MERIDEN CLOUDY 37 27 67 CALM 29.67R NEW HAVEN MOSUNNY 37 29 72 SW14G23 29.67R WCI 28 CHESTER FAIR 36 28 75 W13 29.66R WCI 27 GROTON MOSUNNY 38 29 70 W18G25 29.66R WCI 28 WILLIMANTIC SUNNY 37 27 67 W9 29.64R WCI 30 IN RI CITY SKY/WX TMP DP RH WIND PRES REMARKS PROVIDENCE MOSUNNY 36 27 69 SW13G23 29.63R WCI 27 BLOCK ISLAND CLOUDY 39 27 60 W20G26 29.65R WCI 30 WESTERLY CLOUDY 38 28 67 W10G20 29.66R WCI 31 IN MA CITY SKY/WX TMP DP RH WIND PRES REMARKS BOSTON MOSUNNY 36 28 73 SW18 29.57R WCI 26 WORCESTER SUNNY 31 19 61 W22G29 29.56R WCI 18 WESTFIELD PTSUNNY 34 17 50 W21G29 29.65R WCI 22 PROVINCETOWN PTSUNNY 37 28 70 W21G28 29.57R WCI 27 NANTUCKET SUNNY 40 31 70 W23G31 29.62R WCI 30 $$ ANZ330-335-338-340-345-350-353-355-251600- COASTAL MARINE OBSERVATIONS STATION/POSITION TIME SKY/WX TEMP WIND PRES VSBY WAVE AIR SEA DIR/SP/G HT/PER (UTC) (F) (DEG/KT/KT) (MB) (MI) (FT/S) NY HARB ENTRANCE 1500 40 42 260/ 19/ 23 1006.7 5/11 4S FIRE IS 1500 39 N/A 7/12 20S FIRE ISLAND 1400 42 1006.6 7/12 23SW MTP 1500 N/A 10/12 HUDSON CANYON NOT AVBL EXECUTION ROCKS 1500 40 35 250/ 16/ 23 N/A WESTERN LI SOUND 1500 38 230/ 17/ 21 N/A 2/ 3 CENTRAL LI SOUND 1400 38 37 250/ 21/ 27 N/A 5/ 5 EASTERN LI SOUND NOT AVBL ROBBINS REEF 1500 38 260/ 18/ 25 1005.7 $$ >>>>>>>>>>>>>>>>>>>>>>>>>>>> KEY <<<<<<<<<<<<<<<<<<<<<<<<<<< > < > SKY/WX - SKY CONDITION/PRESENT WEATHER < > TMP - TEMPERATURE IN FAHRENHEIT < > DP - DEWPOINT IN FAHRENHEIT < > RH - RELATIVE HUMIDITY IN PERCENT < > WIND - DIRECTION AND SPEED IN MPH < > PRES - MEAN SEA LEVEL PRESSURE IN INCHES OF HG < > WCI - WIND CHILL INDEX < > VSB - VISIBILITY IN MILES < > HX - HEAT INDEX < > TC - TEMPERATURE IN CELSIUS < > VRB - VARIABLE WIND DIRECTION < > < >>>>>>>>>>>>>>>>>>>>>>>>>>>> KEY <<<<<<<<<<<<<<<<<<<<<<<<<<<

USA.gov is the U.S. government's official web portal to all federal, state and local government web resources and services.